owner,sensor,date,latitude,longitude,vertical_datum,mass_concentration_of_oxygen_in_sea_water,qcFlag 
NERRS,ioos:station:NOAA.NERRS:wkbfrwq:1,2017-02-01T00:45:00Z,30.4162,-87.8228,2.12,7.8,1111122 
NERRS,ioos:station:NOAA.NERRS:wkbfrwq:1,2017-02-01T01:45:00Z,30.4162,-87.8228,2.15,7.9,1111122 
NERRS,ioos:station:NOAA.NERRS:wkbfrwq:1,2017-02-01T02:45:00Z,30.4162,-87.8228,2.16,9.8,1111122 
NERRS,ioos:station:NOAA.NERRS:wkbfrwq:1,2017-02-01T03:45:00Z,30.4162,-87.8228,2.16,7.4,1111122 
NERRS,ioos:station:NOAA.NERRS:wkbfrwq:1,2017-02-01T04:45:00Z,30.4162,-87.8228,2.19,7.5,1111122 
NERRS,ioos:station:NOAA.NERRS:wkbfrwq:1,2017-02-01T05:45:00Z,30.4162,-87.8228,2.21,8.3,1111122 
NERRS,ioos:station:NOAA.NERRS:wkbfrwq:1,2017-02-01T07:45:00Z,30.4162,-87.8228,2.2,6.7,1111122 
NERRS,ioos:station:NOAA.NERRS:wkbfrwq:1,2017-02-01T08:45:00Z,30.4162,-87.8228,2.18,5.7,1111122 
NERRS,ioos:station:NOAA.NERRS:wkbfrwq:1,2017-02-01T09:45:00Z,30.4162,-87.8228,2.15,6.6,1111122 
NERRS,ioos:station:NOAA.NERRS:wkbfrwq:1,2017-02-01T10:45:00Z,30.4162,-87.8228,2.11,8.1,1111122 
NERRS,ioos:station:NOAA.NERRS:wkbfrwq:1,2017-02-01T11:45:00Z,30.4162,-87.8228,2.08,6.9,1111122 
NERRS,ioos:station:NOAA.NERRS:wkbfrwq:1,2017-02-01T12:45:00Z,30.4162,-87.8228,2.04,7.0,1111122 
NERRS,ioos:station:NOAA.NERRS:wkbfrwq:1,2017-02-01T13:45:00Z,30.4162,-87.8228,2.0,6.6,1111122 
NERRS,ioos:station:NOAA.NERRS:wkbfrwq:1,2017-02-01T14:45:00Z,30.4162,-87.8228,1.99,6.8,1111122 
NERRS,ioos:station:NOAA.NERRS:wkbfrwq:1,2017-02-01T15:45:00Z,30.4162,-87.8228,1.99,6.8,1111122 
NERRS,ioos:station:NOAA.NERRS:wkbfrwq:1,2017-02-01T16:45:00Z,30.4162,-87.8228,2.02,7.7,1111122 
NERRS,ioos:station:NOAA.NERRS:wkbfrwq:1,2017-02-01T17:45:00Z,30.4162,-87.8228,2.03,7.7,1111122 
NERRS,ioos:station:NOAA.NERRS:wkbfrwq:1,2017-02-01T18:45:00Z,30.4162,-87.8228,2.05,8.1,1111122 
NERRS,ioos:station:NOAA.NERRS:wkbfrwq:1,2017-02-01T19:45:00Z,30.4162,-87.8228,2.09,8.7,1111122 
NERRS,ioos:station:NOAA.NERRS:wkbfrwq:1,2017-02-01T20:45:00Z,30.4162,-87.8228,2.13,9.3,1111122 
NERRS,ioos:station:NOAA.NERRS:wkbfrwq:1,2017-02-01T21:45:00Z,30.4162,-87.8228,2.16,8.9,1111122 
NERRS,ioos:station:NOAA.NERRS:wkbfrwq:1,2017-02-01T22:45:00Z,30.4162,-87.8228,2.17,8.5,1111122 
NERRS,ioos:station:NOAA.NERRS:wkbfrwq:1,2017-02-01T23:45:00Z,30.4162,-87.8228,2.18,8.7,1111122 
NERRS,ioos:station:NOAA.NERRS:wkbfrwq:1,2017-02-02T00:45:00Z,30.4162,-87.8228,2.16,8.2,1111122 
NERRS,ioos:station:NOAA.NERRS:wkbfrwq:1,2017-02-02T01:45:00Z,30.4162,-87.8228,2.14,7.8,1111122 
NERRS,ioos:station:NOAA.NERRS:wkbfrwq:1,2017-02-02T02:45:00Z,30.4162,-87.8228,2.12,7.7,1111122 
NERRS,ioos:station:NOAA.NERRS:wkbfrwq:1,2017-02-02T03:45:00Z,30.4162,-87.8228,2.12,8.2,1111122 
NERRS,ioos:station:NOAA.NERRS:wkbfrwq:1,2017-02-02T04:45:00Z,30.4162,-87.8228,2.12,8.6,1111122 
NERRS,ioos:station:NOAA.NERRS:wkbfrwq:1,2017-02-02T05:45:00Z,30.4162,-87.8228,2.11,9.0,1111122 
NERRS,ioos:station:NOAA.NERRS:wkbfrwq:1,2017-02-02T06:45:00Z,30.4162,-87.8228,2.13,8.8,1111122 
NERRS,ioos:station:NOAA.NERRS:wkbfrwq:1,2017-02-02T07:45:00Z,30.4162,-87.8228,2.14,9.1,1111122 
NERRS,ioos:station:NOAA.NERRS:wkbfrwq:1,2017-02-02T08:45:00Z,30.4162,-87.8228,2.12,8.9,1111122 
NERRS,ioos:station:NOAA.NERRS:wkbfrwq:1,2017-02-02T09:45:00Z,30.4162,-87.8228,2.12,8.7,1111122 
NERRS,ioos:station:NOAA.NERRS:wkbfrwq:1,2017-02-02T10:45:00Z,30.4162,-87.8228,2.13,8.7,1111122 
NERRS,ioos:station:NOAA.NERRS:wkbfrwq:1,2017-02-02T11:45:00Z,30.4162,-87.8228,2.11,8.5,1111122 
NERRS,ioos:station:NOAA.NERRS:wkbfrwq:1,2017-02-02T12:45:00Z,30.4162,-87.8228,2.08,8.5,1111122 
NERRS,ioos:station:NOAA.NERRS:wkbfrwq:1,2017-02-02T13:45:00Z,30.4162,-87.8228,2.05,7.8,1111122 
NERRS,ioos:station:NOAA.NERRS:wkbfrwq:1,2017-02-02T14:45:00Z,30.4162,-87.8228,2.04,7.9,1111122 
NERRS,ioos:station:NOAA.NERRS:wkbfrwq:1,2017-02-02T15:45:00Z,30.4162,-87.8228,2.07,8.1,1111122 
NERRS,ioos:station:NOAA.NERRS:wkbfrwq:1,2017-02-02T16:45:00Z,30.4162,-87.8228,2.11,8.3,1111122 
NERRS,ioos:station:NOAA.NERRS:wkbfrwq:1,2017-02-02T17:45:00Z,30.4162,-87.8228,2.13,8.6,1111122 
NERRS,ioos:station:NOAA.NERRS:wkbfrwq:1,2017-02-02T18:45:00Z,30.4162,-87.8228,2.14,8.7,1111122 
NERRS,ioos:station:NOAA.NERRS:wkbfrwq:1,2017-02-02T19:45:00Z,30.4162,-87.8228,2.15,8.9,1111122 
NERRS,ioos:station:NOAA.NERRS:wkbfrwq:1,2017-02-02T20:45:00Z,30.4162,-87.8228,2.18,9.2,1111122 
NERRS,ioos:station:NOAA.NERRS:wkbfrwq:1,2017-02-02T21:45:00Z,30.4162,-87.8228,2.21,9.5,1111122 
NERRS,ioos:station:NOAA.NERRS:wkbfrwq:1,2017-02-02T22:45:00Z,30.4162,-87.8228,2.24,9.5,1111122 
NERRS,ioos:station:NOAA.NERRS:wkbfrwq:1,2017-02-02T23:45:00Z,30.4162,-87.8228,2.23,9.4,1111122 
NERRS,ioos:station:NOAA.NERRS:wkbfrwq:1,2017-02-03T00:45:00Z,30.4162,-87.8228,2.2,8.6,1111122 
NERRS,ioos:station:NOAA.NERRS:wkbfrwq:1,2017-02-03T01:45:00Z,30.4162,-87.8228,2.16,7.9,1111122 
NERRS,ioos:station:NOAA.NERRS:wkbfrwq:1,2017-02-03T02:45:00Z,30.4162,-87.8228,2.13,7.3,1111122 
NERRS,ioos:station:NOAA.NERRS:wkbfrwq:1,2017-02-03T03:45:00Z,30.4162,-87.8228,2.1,7.5,1111122 
NERRS,ioos:station:NOAA.NERRS:wkbfrwq:1,2017-02-03T04:45:00Z,30.4162,-87.8228,2.08,6.9,1111122 
NERRS,ioos:station:NOAA.NERRS:wkbfrwq:1,2017-02-03T05:45:00Z,30.4162,-87.8228,2.09,7.0,1111122 
NERRS,ioos:station:NOAA.NERRS:wkbfrwq:1,2017-02-03T06:45:00Z,30.4162,-87.8228,2.07,7.7,1111122 
NERRS,ioos:station:NOAA.NERRS:wkbfrwq:1,2017-02-03T07:45:00Z,30.4162,-87.8228,2.03,7.4,1111122 
NERRS,ioos:station:NOAA.NERRS:wkbfrwq:1,2017-02-03T08:45:00Z,30.4162,-87.8228,2.02,7.3,1111122 
NERRS,ioos:station:NOAA.NERRS:wkbfrwq:1,2017-02-03T09:45:00Z,30.4162,-87.8228,2.05,7.6,1111122 
NERRS,ioos:station:NOAA.NERRS:wkbfrwq:1,2017-02-03T10:45:00Z,30.4162,-87.8228,2.09,8.1,1111122 
NERRS,ioos:station:NOAA.NERRS:wkbfrwq:1,2017-02-03T11:45:00Z,30.4162,-87.8228,2.08,8.0,1111122 
NERRS,ioos:station:NOAA.NERRS:wkbfrwq:1,2017-02-03T12:45:00Z,30.4162,-87.8228,2.05,7.6,1111122 
NERRS,ioos:station:NOAA.NERRS:wkbfrwq:1,2017-02-03T13:45:00Z,30.4162,-87.8228,2.08,7.2,1111122 
NERRS,ioos:station:NOAA.NERRS:wkbfrwq:1,2017-02-03T14:45:00Z,30.4162,-87.8228,2.11,7.8,1111122 
NERRS,ioos:station:NOAA.NERRS:wkbfrwq:1,2017-02-03T15:45:00Z,30.4162,-87.8228,2.14,8.2,1111122 
NERRS,ioos:station:NOAA.NERRS:wkbfrwq:1,2017-02-03T16:45:00Z,30.4162,-87.8228,2.14,7.9,1111122 
NERRS,ioos:station:NOAA.NERRS:wkbfrwq:1,2017-02-03T17:45:00Z,30.4162,-87.8228,2.14,7.8,1111122 
NERRS,ioos:station:NOAA.NERRS:wkbfrwq:1,2017-02-03T18:45:00Z,30.4162,-87.8228,2.17,8.7,1111122 
NERRS,ioos:station:NOAA.NERRS:wkbfrwq:1,2017-02-03T19:45:00Z,30.4162,-87.8228,2.17,9.2,1111122 
NERRS,ioos:station:NOAA.NERRS:wkbfrwq:1,2017-02-03T20:45:00Z,30.4162,-87.8228,2.1,8.8,1111122 
NERRS,ioos:station:NOAA.NERRS:wkbfrwq:1,2017-02-03T21:45:00Z,30.4162,-87.8228,2.08,8.5,1111122 
NERRS,ioos:station:NOAA.NERRS:wkbfrwq:1,2017-02-03T23:45:00Z,30.4162,-87.8228,2.13,9.3,1111122 
NERRS,ioos:station:NOAA.NERRS:wkbfrwq:1,2017-02-04T00:45:00Z,30.4162,-87.8228,2.08,8.9,1111122 
NERRS,ioos:station:NOAA.NERRS:wkbfrwq:1,2017-02-04T01:45:00Z,30.4162,-87.8228,2.05,8.2,1111122 
NERRS,ioos:station:NOAA.NERRS:wkbfrwq:1,2017-02-04T03:45:00Z,30.4162,-87.8228,1.98,8.0,1111122 
NERRS,ioos:station:NOAA.NERRS:wkbfrwq:1,2017-02-04T04:45:00Z,30.4162,-87.8228,1.97,6.4,1111122 
NERRS,ioos:station:NOAA.NERRS:wkbfrwq:1,2017-02-04T05:45:00Z,30.4162,-87.8228,1.95,6.4,1111122 
NERRS,ioos:station:NOAA.NERRS:wkbfrwq:1,2017-02-04T07:45:00Z,30.4162,-87.8228,1.84,7.6,1111122 
NERRS,ioos:station:NOAA.NERRS:wkbfrwq:1,2017-02-04T08:45:00Z,30.4162,-87.8228,1.78,7.9,1111122 
NERRS,ioos:station:NOAA.NERRS:wkbfrwq:1,2017-02-04T09:45:00Z,30.4162,-87.8228,1.74,7.8,1111122 
NERRS,ioos:station:NOAA.NERRS:wkbfrwq:1,2017-02-04T10:45:00Z,30.4162,-87.8228,1.75,5.4,1111122 
NERRS,ioos:station:NOAA.NERRS:wkbfrwq:1,2017-02-04T11:45:00Z,30.4162,-87.8228,1.78,6.8,1111122 
NERRS,ioos:station:NOAA.NERRS:wkbfrwq:1,2017-02-04T12:45:00Z,30.4162,-87.8228,1.8,7.4,1111122 
NERRS,ioos:station:NOAA.NERRS:wkbfrwq:1,2017-02-04T13:45:00Z,30.4162,-87.8228,1.81,7.6,1111122 
NERRS,ioos:station:NOAA.NERRS:wkbfrwq:1,2017-02-04T14:45:00Z,30.4162,-87.8228,1.82,7.5,1111122 
NERRS,ioos:station:NOAA.NERRS:wkbfrwq:1,2017-02-04T15:45:00Z,30.4162,-87.8228,1.9,7.9,1111122 
NERRS,ioos:station:NOAA.NERRS:wkbfrwq:1,2017-02-04T17:45:00Z,30.4162,-87.8228,0.0,10.4,1111122 
NERRS,ioos:station:NOAA.NERRS:wkbfrwq:1,2017-02-04T18:45:00Z,30.4162,-87.8228,2.15,11.0,1111122 
NERRS,ioos:station:NOAA.NERRS:wkbfrwq:1,2017-02-04T20:45:00Z,30.4162,-87.8228,2.25,11.5,1111122 
NERRS,ioos:station:NOAA.NERRS:wkbfrwq:1,2017-02-04T21:45:00Z,30.4162,-87.8228,2.29,11.7,1111122 
NERRS,ioos:station:NOAA.NERRS:wkbfrwq:1,2017-02-04T22:45:00Z,30.4162,-87.8228,2.32,11.7,1111122 
NERRS,ioos:station:NOAA.NERRS:wkbfrwq:1,2017-02-04T23:45:00Z,30.4162,-87.8228,2.31,11.7,1111122 
NERRS,ioos:station:NOAA.NERRS:wkbfrwq:1,2017-02-05T01:45:00Z,30.4162,-87.8228,2.25,10.6,1111122 
NERRS,ioos:station:NOAA.NERRS:wkbfrwq:1,2017-02-05T02:45:00Z,30.4162,-87.8228,2.19,10.5,1111122 
NERRS,ioos:station:NOAA.NERRS:wkbfrwq:1,2017-02-05T03:45:00Z,30.4162,-87.8228,2.12,10.2,1111122 
NERRS,ioos:station:NOAA.NERRS:wkbfrwq:1,2017-02-05T04:45:00Z,30.4162,-87.8228,2.07,9.5,1111122 
NERRS,ioos:station:NOAA.NERRS:wkbfrwq:1,2017-02-05T05:45:00Z,30.4162,-87.8228,2.03,9.4,1111122 
NERRS,ioos:station:NOAA.NERRS:wkbfrwq:1,2017-02-05T06:45:00Z,30.4162,-87.8228,1.96,9.0,1111122 
NERRS,ioos:station:NOAA.NERRS:wkbfrwq:1,2017-02-05T07:45:00Z,30.4162,-87.8228,1.9,8.9,1111122 
NERRS,ioos:station:NOAA.NERRS:wkbfrwq:1,2017-02-05T08:45:00Z,30.4162,-87.8228,1.86,8.4,1111122 
NERRS,ioos:station:NOAA.NERRS:wkbfrwq:1,2017-02-05T09:45:00Z,30.4162,-87.8228,1.84,7.8,1111122 
NERRS,ioos:station:NOAA.NERRS:wkbfrwq:1,2017-02-05T10:45:00Z,30.4162,-87.8228,1.84,6.8,1111122 
NERRS,ioos:station:NOAA.NERRS:wkbfrwq:1,2017-02-05T11:45:00Z,30.4162,-87.8228,1.86,6.8,1111122 
NERRS,ioos:station:NOAA.NERRS:wkbfrwq:1,2017-02-05T12:45:00Z,30.4162,-87.8228,1.91,7.4,1111122 
NERRS,ioos:station:NOAA.NERRS:wkbfrwq:1,2017-02-05T14:45:00Z,30.4162,-87.8228,2.02,8.7,1111122 
NERRS,ioos:station:NOAA.NERRS:wkbfrwq:1,2017-02-05T15:45:00Z,30.4162,-87.8228,2.1,8.7,1111122 
NERRS,ioos:station:NOAA.NERRS:wkbfrwq:1,2017-02-05T16:45:00Z,30.4162,-87.8228,2.13,9.5,1111122 
NERRS,ioos:station:NOAA.NERRS:wkbfrwq:1,2017-02-05T17:45:00Z,30.4162,-87.8228,2.15,9.1,1111122 
NERRS,ioos:station:NOAA.NERRS:wkbfrwq:1,2017-02-05T18:45:00Z,30.4162,-87.8228,2.17,9.7,1111122 
NERRS,ioos:station:NOAA.NERRS:wkbfrwq:1,2017-02-05T19:45:00Z,30.4162,-87.8228,2.22,10.8,1111122 
NERRS,ioos:station:NOAA.NERRS:wkbfrwq:1,2017-02-05T20:45:00Z,30.4162,-87.8228,2.27,11.6,1111122 
NERRS,ioos:station:NOAA.NERRS:wkbfrwq:1,2017-02-05T21:45:00Z,30.4162,-87.8228,0.0,12.2,1111122 
NERRS,ioos:station:NOAA.NERRS:wkbfrwq:1,2017-02-05T22:45:00Z,30.4162,-87.8228,2.28,11.7,1111122 
NERRS,ioos:station:NOAA.NERRS:wkbfrwq:1,2017-02-05T23:45:00Z,30.4162,-87.8228,2.29,9.9,1111122 
NERRS,ioos:station:NOAA.NERRS:wkbfrwq:1,2017-02-06T00:45:00Z,30.4162,-87.8228,2.27,9.9,1111122 
NERRS,ioos:station:NOAA.NERRS:wkbfrwq:1,2017-02-06T01:45:00Z,30.4162,-87.8228,2.24,9.6,1111122 
NERRS,ioos:station:NOAA.NERRS:wkbfrwq:1,2017-02-06T02:45:00Z,30.4162,-87.8228,2.2,9.8,1111122 
NERRS,ioos:station:NOAA.NERRS:wkbfrwq:1,2017-02-06T03:45:00Z,30.4162,-87.8228,2.14,10.9,1111122 
NERRS,ioos:station:NOAA.NERRS:wkbfrwq:1,2017-02-06T04:45:00Z,30.4162,-87.8228,2.08,10.1,1111122 
NERRS,ioos:station:NOAA.NERRS:wkbfrwq:1,2017-02-06T08:45:00Z,30.4162,-87.8228,1.83,8.5,1111122 
NERRS,ioos:station:NOAA.NERRS:wkbfrwq:1,2017-02-06T09:45:00Z,30.4162,-87.8228,1.79,8.4,1111122 
NERRS,ioos:station:NOAA.NERRS:wkbfrwq:1,2017-02-06T10:45:00Z,30.4162,-87.8228,1.76,6.2,1111122 
NERRS,ioos:station:NOAA.NERRS:wkbfrwq:1,2017-02-06T11:45:00Z,30.4162,-87.8228,1.76,5.4,1111122 
NERRS,ioos:station:NOAA.NERRS:wkbfrwq:1,2017-02-06T12:45:00Z,30.4162,-87.8228,1.77,5.5,1111122 
NERRS,ioos:station:NOAA.NERRS:wkbfrwq:1,2017-02-06T14:45:00Z,30.4162,-87.8228,1.9,7.7,1111122 
NERRS,ioos:station:NOAA.NERRS:wkbfrwq:1,2017-02-06T15:45:00Z,30.4162,-87.8228,1.98,8.9,1111122 
NERRS,ioos:station:NOAA.NERRS:wkbfrwq:1,2017-02-06T16:45:00Z,30.4162,-87.8228,2.05,10.1,1111122 
NERRS,ioos:station:NOAA.NERRS:wkbfrwq:1,2017-02-06T17:45:00Z,30.4162,-87.8228,2.1,10.5,1111122 
NERRS,ioos:station:NOAA.NERRS:wkbfrwq:1,2017-02-06T18:45:00Z,30.4162,-87.8228,2.14,10.7,1111122 
NERRS,ioos:station:NOAA.NERRS:wkbfrwq:1,2017-02-06T19:45:00Z,30.4162,-87.8228,2.2,11.8,1111122 
NERRS,ioos:station:NOAA.NERRS:wkbfrwq:1,2017-02-06T20:45:00Z,30.4162,-87.8228,2.25,12.5,1111122 
NERRS,ioos:station:NOAA.NERRS:wkbfrwq:1,2017-02-06T21:45:00Z,30.4162,-87.8228,2.3,12.6,1111122 
NERRS,ioos:station:NOAA.NERRS:wkbfrwq:1,2017-02-06T23:45:00Z,30.4162,-87.8228,2.37,12.2,1111122 
NERRS,ioos:station:NOAA.NERRS:wkbfrwq:1,2017-02-07T01:45:00Z,30.4162,-87.8228,2.37,11.8,1111122 
NERRS,ioos:station:NOAA.NERRS:wkbfrwq:1,2017-02-07T02:45:00Z,30.4162,-87.8228,2.36,12.0,1111122 
NERRS,ioos:station:NOAA.NERRS:wkbfrwq:1,2017-02-07T04:45:00Z,30.4162,-87.8228,2.26,11.4,1111122 
NERRS,ioos:station:NOAA.NERRS:wkbfrwq:1,2017-02-07T05:45:00Z,30.4162,-87.8228,2.18,11.0,1111122 
NERRS,ioos:station:NOAA.NERRS:wkbfrwq:1,2017-02-07T06:45:00Z,30.4162,-87.8228,2.08,10.4,1111122 
NERRS,ioos:station:NOAA.NERRS:wkbfrwq:1,2017-02-07T07:45:00Z,30.4162,-87.8228,2.02,10.5,1111122 
NERRS,ioos:station:NOAA.NERRS:wkbfrwq:1,2017-02-07T08:45:00Z,30.4162,-87.8228,1.96,10.0,1111122 
NERRS,ioos:station:NOAA.NERRS:wkbfrwq:1,2017-02-07T09:45:00Z,30.4162,-87.8228,1.9,9.0,1111122 
NERRS,ioos:station:NOAA.NERRS:wkbfrwq:1,2017-02-07T14:45:00Z,30.4162,-87.8228,1.83,6.8,1111122 
NERRS,ioos:station:NOAA.NERRS:wkbfrwq:1,2017-02-07T15:45:00Z,30.4162,-87.8228,1.94,9.1,1111122 
NERRS,ioos:station:NOAA.NERRS:wkbfrwq:1,2017-02-07T16:45:00Z,30.4162,-87.8228,2.03,9.5,1111122 
NERRS,ioos:station:NOAA.NERRS:wkbfrwq:1,2017-02-07T21:45:00Z,30.4162,-87.8228,2.27,9.1,1111122 
NERRS,ioos:station:NOAA.NERRS:wkbfrwq:1,2017-02-07T22:45:00Z,30.4162,-87.8228,2.57,9.2,1111122 
NERRS,ioos:station:NOAA.NERRS:wkbfrwq:1,2017-02-07T23:45:00Z,30.4162,-87.8228,2.5,9.2,1111122 
NERRS,ioos:station:NOAA.NERRS:wkbfrwq:1,2017-02-08T00:45:00Z,30.4162,-87.8228,2.46,8.8,1111122 
NERRS,ioos:station:NOAA.NERRS:wkbfrwq:1,2017-02-08T01:45:00Z,30.4162,-87.8228,2.37,8.1,1111122 
NERRS,ioos:station:NOAA.NERRS:wkbfrwq:1,2017-02-08T02:45:00Z,30.4162,-87.8228,2.44,8.0,1111122 
NERRS,ioos:station:NOAA.NERRS:wkbfrwq:1,2017-02-08T03:45:00Z,30.4162,-87.8228,2.51,8.3,1111122 
NERRS,ioos:station:NOAA.NERRS:wkbfrwq:1,2017-02-08T04:45:00Z,30.4162,-87.8228,2.43,7.9,1111122 
NERRS,ioos:station:NOAA.NERRS:wkbfrwq:1,2017-02-08T05:45:00Z,30.4162,-87.8228,2.34,7.2,1111122 
NERRS,ioos:station:NOAA.NERRS:wkbfrwq:1,2017-02-08T09:45:00Z,30.4162,-87.8228,2.05,6.5,1111122 
NERRS,ioos:station:NOAA.NERRS:wkbfrwq:1,2017-02-08T10:45:00Z,30.4162,-87.8228,2.01,6.4,1111122 
NERRS,ioos:station:NOAA.NERRS:wkbfrwq:1,2017-02-08T11:45:00Z,30.4162,-87.8228,1.96,6.4,1111122 
NERRS,ioos:station:NOAA.NERRS:wkbfrwq:1,2017-02-08T12:45:00Z,30.4162,-87.8228,1.91,6.3,1111122 
NERRS,ioos:station:NOAA.NERRS:wkbfrwq:1,2017-02-08T13:45:00Z,30.4162,-87.8228,1.89,6.4,1111122 
NERRS,ioos:station:NOAA.NERRS:wkbfrwq:1,2017-02-08T14:45:00Z,30.4162,-87.8228,1.88,6.1,1111122 
NERRS,ioos:station:NOAA.NERRS:wkbfrwq:1,2017-02-08T15:45:00Z,30.4162,-87.8228,1.94,6.1,1111122 
NERRS,ioos:station:NOAA.NERRS:wkbfrwq:1,2017-02-08T16:45:00Z,30.4162,-87.8228,2.01,6.1,1111122 
NERRS,ioos:station:NOAA.NERRS:wkbfrwq:1,2017-02-08T17:45:00Z,30.4162,-87.8228,2.08,6.9,1111122 
NERRS,ioos:station:NOAA.NERRS:wkbfrwq:1,2017-02-08T18:45:00Z,30.4162,-87.8228,2.15,6.9,1111122 
NERRS,ioos:station:NOAA.NERRS:wkbfrwq:1,2017-02-08T19:45:00Z,30.4162,-87.8228,2.2,7.1,1111122 
NERRS,ioos:station:NOAA.NERRS:wkbfrwq:1,2017-02-08T20:45:00Z,30.4162,-87.8228,2.26,7.2,1111122 
NERRS,ioos:station:NOAA.NERRS:wkbfrwq:1,2017-02-08T21:45:00Z,30.4162,-87.8228,2.31,7.1,1111122 
NERRS,ioos:station:NOAA.NERRS:wkbfrwq:1,2017-02-08T22:45:00Z,30.4162,-87.8228,2.35,7.4,1111122 
NERRS,ioos:station:NOAA.NERRS:wkbfrwq:1,2017-02-08T23:45:00Z,30.4162,-87.8228,2.42,7.4,1111122 
NERRS,ioos:station:NOAA.NERRS:wkbfrwq:1,2017-02-09T00:45:00Z,30.4162,-87.8228,2.51,8.0,1111122 
NERRS,ioos:station:NOAA.NERRS:wkbfrwq:1,2017-02-09T01:45:00Z,30.4162,-87.8228,2.54,7.7,1111122 
NERRS,ioos:station:NOAA.NERRS:wkbfrwq:1,2017-02-09T02:45:00Z,30.4162,-87.8228,2.54,7.7,1111122 
NERRS,ioos:station:NOAA.NERRS:wkbfrwq:1,2017-02-09T03:45:00Z,30.4162,-87.8228,2.57,7.7,1111122 
NERRS,ioos:station:NOAA.NERRS:wkbfrwq:1,2017-02-09T04:45:00Z,30.4162,-87.8228,2.57,7.8,1111122 
NERRS,ioos:station:NOAA.NERRS:wkbfrwq:1,2017-02-09T05:45:00Z,30.4162,-87.8228,2.48,7.3,1111122 
NERRS,ioos:station:NOAA.NERRS:wkbfrwq:1,2017-02-09T06:45:00Z,30.4162,-87.8228,2.4,6.7,1111122 
NERRS,ioos:station:NOAA.NERRS:wkbfrwq:1,2017-02-09T07:45:00Z,30.4162,-87.8228,2.28,6.8,1111122 
NERRS,ioos:station:NOAA.NERRS:wkbfrwq:1,2017-02-09T08:45:00Z,30.4162,-87.8228,2.17,6.8,1111122 
NERRS,ioos:station:NOAA.NERRS:wkbfrwq:1,2017-02-09T09:45:00Z,30.4162,-87.8228,2.08,6.7,1111122 
NERRS,ioos:station:NOAA.NERRS:wkbfrwq:1,2017-02-09T10:45:00Z,30.4162,-87.8228,2.01,6.8,1111122 
NERRS,ioos:station:NOAA.NERRS:wkbfrwq:1,2017-02-09T11:45:00Z,30.4162,-87.8228,1.98,6.9,1111122 
NERRS,ioos:station:NOAA.NERRS:wkbfrwq:1,2017-02-09T12:45:00Z,30.4162,-87.8228,1.92,6.9,1111122 
NERRS,ioos:station:NOAA.NERRS:wkbfrwq:1,2017-02-09T13:45:00Z,30.4162,-87.8228,1.84,7.0,1111122 
NERRS,ioos:station:NOAA.NERRS:wkbfrwq:1,2017-02-16T14:45:00Z,30.4162,-87.8228,1.86,5.6,1111122 
NERRS,ioos:station:NOAA.NERRS:wkbfrwq:1,2017-02-16T17:45:00Z,30.4162,-87.8228,2.06,8.5,1111122 
NERRS,ioos:station:NOAA.NERRS:wkbfrwq:1,2017-02-16T18:45:00Z,30.4162,-87.8228,2.1,9.3,1111122 
NERRS,ioos:station:NOAA.NERRS:wkbfrwq:1,2017-02-16T19:45:00Z,30.4162,-87.8228,2.11,10.4,1111122 
NERRS,ioos:station:NOAA.NERRS:wkbfrwq:1,2017-02-16T21:45:00Z,30.4162,-87.8228,2.1,9.7,1111122 
NERRS,ioos:station:NOAA.NERRS:wkbfrwq:1,2017-02-17T01:45:00Z,30.4162,-87.8228,2.0,9.2,1111122 
NERRS,ioos:station:NOAA.NERRS:wkbfrwq:1,2017-02-17T02:45:00Z,30.4162,-87.8228,1.98,9.6,1111122 
NERRS,ioos:station:NOAA.NERRS:wkbfrwq:1,2017-02-17T03:45:00Z,30.4162,-87.8228,1.95,8.9,1111122 
NERRS,ioos:station:NOAA.NERRS:wkbfrwq:1,2017-02-17T13:45:00Z,30.4162,-87.8228,1.96,8.2,1111122 
NERRS,ioos:station:NOAA.NERRS:wkbfrwq:1,2017-02-17T16:45:00Z,30.4162,-87.8228,2.08,8.5,1111122 
NERRS,ioos:station:NOAA.NERRS:wkbfrwq:1,2017-02-17T17:45:00Z,30.4162,-87.8228,2.13,9.5,1111122 
NERRS,ioos:station:NOAA.NERRS:wkbfrwq:1,2017-02-17T18:45:00Z,30.4162,-87.8228,2.16,10.2,1111122 
NERRS,ioos:station:NOAA.NERRS:wkbfrwq:1,2017-02-17T20:45:00Z,30.4162,-87.8228,2.15,9.6,1111122 
NERRS,ioos:station:NOAA.NERRS:wkbfrwq:1,2017-02-17T21:45:00Z,30.4162,-87.8228,2.14,8.8,1111122 
NERRS,ioos:station:NOAA.NERRS:wkbfrwq:1,2017-02-18T01:45:00Z,30.4162,-87.8228,1.95,8.1,1111122 
NERRS,ioos:station:NOAA.NERRS:wkbfrwq:1,2017-02-18T03:45:00Z,30.4162,-87.8228,1.93,7.7,1111122 
NERRS,ioos:station:NOAA.NERRS:wkbfrwq:1,2017-02-18T04:45:00Z,30.4162,-87.8228,1.99,8.9,1111122 
NERRS,ioos:station:NOAA.NERRS:wkbfrwq:1,2017-02-18T05:45:00Z,30.4162,-87.8228,2.04,8.7,1111122 
NERRS,ioos:station:NOAA.NERRS:wkbfrwq:1,2017-02-18T08:45:00Z,30.4162,-87.8228,1.79,7.5,1111122 
NERRS,ioos:station:NOAA.NERRS:wkbfrwq:1,2017-02-18T09:45:00Z,30.4162,-87.8228,1.72,6.9,1111122 
NERRS,ioos:station:NOAA.NERRS:wkbfrwq:1,2017-02-18T10:45:00Z,30.4162,-87.8228,1.71,7.1,1111122 
NERRS,ioos:station:NOAA.NERRS:wkbfrwq:1,2017-02-18T13:45:00Z,30.4162,-87.8228,2.08,7.5,1111122 
NERRS,ioos:station:NOAA.NERRS:wkbfrwq:1,2017-02-18T15:45:00Z,30.4162,-87.8228,2.06,7.3,1111122 
NERRS,ioos:station:NOAA.NERRS:wkbfrwq:1,2017-02-18T16:45:00Z,30.4162,-87.8228,2.09,7.1,1111122 
NERRS,ioos:station:NOAA.NERRS:wkbfrwq:1,2017-02-18T17:45:00Z,30.4162,-87.8228,2.17,8.2,1111122 
NERRS,ioos:station:NOAA.NERRS:wkbfrwq:1,2017-02-18T18:45:00Z,30.4162,-87.8228,2.23,8.8,1111122 
NERRS,ioos:station:NOAA.NERRS:wkbfrwq:1,2017-02-18T19:45:00Z,30.4162,-87.8228,2.25,8.9,1111122 
NERRS,ioos:station:NOAA.NERRS:wkbfrwq:1,2017-02-18T20:45:00Z,30.4162,-87.8228,2.24,8.2,1111122 
NERRS,ioos:station:NOAA.NERRS:wkbfrwq:1,2017-02-18T21:45:00Z,30.4162,-87.8228,2.27,8.0,1111122 
NERRS,ioos:station:NOAA.NERRS:wkbfrwq:1,2017-02-18T22:45:00Z,30.4162,-87.8228,2.33,9.3,1111122 
NERRS,ioos:station:NOAA.NERRS:wkbfrwq:1,2017-02-18T23:45:00Z,30.4162,-87.8228,2.3,8.0,1111122 
NERRS,ioos:station:NOAA.NERRS:wkbfrwq:1,2017-02-19T00:45:00Z,30.4162,-87.8228,2.27,8.0,1111122 
NERRS,ioos:station:NOAA.NERRS:wkbfrwq:1,2017-02-19T01:45:00Z,30.4162,-87.8228,2.23,8.3,1111122 
NERRS,ioos:station:NOAA.NERRS:wkbfrwq:1,2017-02-19T02:45:00Z,30.4162,-87.8228,2.18,8.5,1111122 
NERRS,ioos:station:NOAA.NERRS:wkbfrwq:1,2017-02-19T03:45:00Z,30.4162,-87.8228,2.15,7.8,1111122 
NERRS,ioos:station:NOAA.NERRS:wkbfrwq:1,2017-02-19T04:45:00Z,30.4162,-87.8228,2.09,8.0,1111122 
NERRS,ioos:station:NOAA.NERRS:wkbfrwq:1,2017-02-19T05:45:00Z,30.4162,-87.8228,2.02,8.3,1111122 
NERRS,ioos:station:NOAA.NERRS:wkbfrwq:1,2017-02-19T06:45:00Z,30.4162,-87.8228,1.96,8.2,1111122 
NERRS,ioos:station:NOAA.NERRS:wkbfrwq:1,2017-02-19T07:45:00Z,30.4162,-87.8228,1.94,7.7,1111122 
NERRS,ioos:station:NOAA.NERRS:wkbfrwq:1,2017-02-19T08:45:00Z,30.4162,-87.8228,1.94,6.4,1111122 
NERRS,ioos:station:NOAA.NERRS:wkbfrwq:1,2017-02-19T09:45:00Z,30.4162,-87.8228,1.93,7.8,1111122 
NERRS,ioos:station:NOAA.NERRS:wkbfrwq:1,2017-02-19T10:45:00Z,30.4162,-87.8228,1.94,7.9,1111122 
NERRS,ioos:station:NOAA.NERRS:wkbfrwq:1,2017-02-19T12:45:00Z,30.4162,-87.8228,1.96,6.7,1111122 
NERRS,ioos:station:NOAA.NERRS:wkbfrwq:1,2017-02-19T13:45:00Z,30.4162,-87.8228,1.99,6.6,1111122 
NERRS,ioos:station:NOAA.NERRS:wkbfrwq:1,2017-02-19T14:45:00Z,30.4162,-87.8228,2.03,6.2,1111122 
NERRS,ioos:station:NOAA.NERRS:wkbfrwq:1,2017-02-19T15:45:00Z,30.4162,-87.8228,2.06,5.8,1111122 
NERRS,ioos:station:NOAA.NERRS:wkbfrwq:1,2017-02-19T16:45:00Z,30.4162,-87.8228,2.1,6.3,1111122 
NERRS,ioos:station:NOAA.NERRS:wkbfrwq:1,2017-02-19T17:45:00Z,30.4162,-87.8228,2.15,7.7,1111122 
NERRS,ioos:station:NOAA.NERRS:wkbfrwq:1,2017-02-19T18:45:00Z,30.4162,-87.8228,2.18,8.6,1111122 
NERRS,ioos:station:NOAA.NERRS:wkbfrwq:1,2017-02-19T19:45:00Z,30.4162,-87.8228,2.23,9.5,1111122 
NERRS,ioos:station:NOAA.NERRS:wkbfrwq:1,2017-02-19T20:45:00Z,30.4162,-87.8228,2.27,10.3,1111122 
NERRS,ioos:station:NOAA.NERRS:wkbfrwq:1,2017-02-19T21:45:00Z,30.4162,-87.8228,2.3,10.7,1111122 
NERRS,ioos:station:NOAA.NERRS:wkbfrwq:1,2017-02-19T22:45:00Z,30.4162,-87.8228,2.32,10.2,1111122 
NERRS,ioos:station:NOAA.NERRS:wkbfrwq:1,2017-02-19T23:45:00Z,30.4162,-87.8228,2.33,9.5,1111122 
NERRS,ioos:station:NOAA.NERRS:wkbfrwq:1,2017-02-20T00:45:00Z,30.4162,-87.8228,2.32,9.7,1111122 
NERRS,ioos:station:NOAA.NERRS:wkbfrwq:1,2017-02-20T01:45:00Z,30.4162,-87.8228,2.28,7.9,1111122 
NERRS,ioos:station:NOAA.NERRS:wkbfrwq:1,2017-02-20T02:45:00Z,30.4162,-87.8228,2.25,8.3,1111122 
NERRS,ioos:station:NOAA.NERRS:wkbfrwq:1,2017-02-20T03:45:00Z,30.4162,-87.8228,2.22,7.4,1111122 
NERRS,ioos:station:NOAA.NERRS:wkbfrwq:1,2017-02-20T04:45:00Z,30.4162,-87.8228,2.15,7.7,1111122 
NERRS,ioos:station:NOAA.NERRS:wkbfrwq:1,2017-02-20T05:45:00Z,30.4162,-87.8228,2.08,7.7,1111122 
NERRS,ioos:station:NOAA.NERRS:wkbfrwq:1,2017-02-20T06:45:00Z,30.4162,-87.8228,2.01,7.5,1111122 
NERRS,ioos:station:NOAA.NERRS:wkbfrwq:1,2017-02-20T07:45:00Z,30.4162,-87.8228,1.96,7.4,1111122 
NERRS,ioos:station:NOAA.NERRS:wkbfrwq:1,2017-02-20T08:45:00Z,30.4162,-87.8228,1.94,5.0,1111122 
NERRS,ioos:station:NOAA.NERRS:wkbfrwq:1,2017-02-20T09:45:00Z,30.4162,-87.8228,1.93,4.9,1111122 
NERRS,ioos:station:NOAA.NERRS:wkbfrwq:1,2017-02-20T10:45:00Z,30.4162,-87.8228,1.91,5.3,1111122 
NERRS,ioos:station:NOAA.NERRS:wkbfrwq:1,2017-02-20T11:45:00Z,30.4162,-87.8228,1.89,4.9,1111122 
NERRS,ioos:station:NOAA.NERRS:wkbfrwq:1,2017-02-20T12:45:00Z,30.4162,-87.8228,1.89,5.7,1111122 
NERRS,ioos:station:NOAA.NERRS:wkbfrwq:1,2017-02-20T13:45:00Z,30.4162,-87.8228,1.93,5.8,1111122 